Regional Weather Roundup
Issued by NWS

Home | Current Version | Previous Version | Text Only | Print | Product List | Glossary On
Versions: 1 2 3 4 5 6 7 8 9 10 11 12 13 14 15 16 17 18 19 20 21 22 23 24 25 26 27 28 29 30 31 32 33 34 35 36 37 38 39 40 41 42 43 44 45 46 47 48 49 50
000
ASUS43 KFSD 181710
RWRSD

WEATHER ROUNDUP FOR SOUTH DAKOTA
NATIONAL WEATHER SERVICE SIOUX FALLS SD
1200 PM CDT SAT APR 18 2015

NOTE: "FAIR" INDICATES FEW OR NO CLOUDS BELOW 12,000 FEET WITH NO
SIGNIFICANT WEATHER AND/OR OBSTRUCTIONS TO VISIBILITY.


SDZ001>005-009-010-012>017-181800-
NORTHWEST AND NORTH CENTRAL SOUTH DAKOTA

CITY           SKY/WX    TMP DP  RH WIND       PRES   REMARKS
BUFFALO          N/A     57  41  55 S10       29.92F
FAITH            N/A     56  35  45 E8        29.98S
MOBRIDGE       PTSUNNY   64  26  23 S7        29.96F
$$

SDZ012>016-024>037-041>051-057-063-072>074-181800-
SOUTHWEST AND SOUTH CENTRAL SOUTH DAKOTA

CITY           SKY/WX    TMP DP  RH WIND       PRES   REMARKS
RAPID CTY ARPT LGT RAIN  50  44  80 NE13      29.97F
PIERRE         CLOUDY    54  36  50 NE14      29.93F
CUSTER         LGT RAIN  39  35  86 NE15      29.96F
ELLSWORTH AFB  LGT RAIN  51  44  78 NE10      29.97F
PHILIP         LGT RAIN  50  45  83 NE8       29.94F
PINE RIDGE     CLOUDY    47  43  86 E7        29.94S
SPEARFISH      FAIR      54  34  47 E15       29.99F
WINNER         PTSUNNY   55  49  80 E13       29.91F
$$

SDZ004>011-016>023-039-040-181800-
NORTHEAST SOUTH DAKOTA

CITY           SKY/WX    TMP DP  RH WIND       PRES   REMARKS
ABERDEEN       CLOUDY    71  22  15 SE12G23   29.97F
WATERTOWN      MOSUNNY   68  26  20 SE18      29.98F
BROOKINGS      CLOUDY    66  28  24 E16       29.97F
SISSETON         N/A     66  28  24 SE13      30.00F
$$

SDZ017-020-022-023-036>040-048>070-181800-
SOUTHEAST SOUTH DAKOTA

CITY           SKY/WX    TMP DP  RH WIND       PRES   REMARKS
SIOUX FALLS    CLOUDY    62  38  40 E13       29.93F
HURON          CLOUDY    68  26  20 SE13G21   29.93F
CHAMBERLAIN    RAIN      49  45  84 E9        29.92F
MITCHELL       CLOUDY    61  37  41 CALM      29.95S
YANKTON        CLOUDY    54  50  87 E5        29.95F
$$

ABBREVIATIONS USED IN REMARKS
   TC - TEMPERATURE IN CELSIUS
  WCI - WIND CHILL INDEX
   HX - HEAT INDEX
  VSB - VISIBILITY



USA.gov is the U.S. government's official web portal to all federal, state and local government web resources and services.